Content
SEND FEEDBACK

Daily
Averages
Monthly
Summary
United States of America

MIDLAND, MICHIGAN


Home > North America > United States > Michigan
Elevation: 628 feet     Latitude: 43 39N     Longitude: 084 15W

WEATHER
 
SELECT A DAY
Number of Records: 106,347;   Date Range: 1/13/10 - 7/27/14
 
SHARE

PRINT THIS DATA

[ ← Previous Day ]
WEATHER ALMANAC - APRIL 7, 2013
[ Next Day → ]
[ °C ]   °F
Weather ElementAverageHighLow
Temperature45.7 °F56.3 °F (4:33 am)37 °F (11:54 pm)
Dewpoint35.7 °F48 °F (6:33 am)29.7 °F (12:34 am)
Humidity68.7 %85 % (7:13 am)44 % (12:34 am)
Barometer29.78 in30.04 in (10:34 pm)29.50 in (5:33 am)
Wind Speed10.5 mph23 mph (8:53 am)
Wind Gust35.7 mph (4:54 am)
Weather ElementAverage
Visibility10 mi
Wind DirectionSSW (216.5 °)

Weather ElementTotal
Precipitation---
Heating Degree Days18.4 (Base 65)
Averaged from 71 records on April 7, 2013
WEATHER CONDITIONS BREAKOUT
WIND DIRECTION BREAKOUT
WEATHER BY HOUR - APRIL 7, 2013
[ °C ]   °F
Local TimeTemperatureDewpointHumidityBarometerVisibilityWind DirectionWind SpeedGust SpeedPrecipitationEventsConditions
12:34 AM51.3 °F29.7 °F44 %29.67 in10.0 miSouth (170°)13.8 mph20.7 mphOvercast
12:54 AM50.0 °F33.4 °F53 %29.65 in10.0 miSouth (170°)11.5 mph16.1 mphLight Drizzle
1:13 AM50.2 °F32.7 °F51 %29.64 in10.0 miSouth (170°)12.7 mph17.3 mphOvercast
1:34 AM50.9 °F31.6 °F48 %29.62 in10.0 miSSE (160°)9.2 mphOvercast
1:53 AM50.9 °F31.1 °F47 %29.61 in10.0 miSSE (160°)12.7 mph16.1 mphOvercast
2:13 AM50.2 °F32.2 °F50 %29.59 in10.0 miSSE (160°)5.8 mphRainLight Rain
2:34 AM50.2 °F32.2 °F50 %29.57 in10.0 miSSE (160°)5.8 mphOvercast
2:53 AM51.3 °F32.2 °F48 %29.56 in10.0 miSouth (170°)6.9 mphOvercast
3:14 AM50.9 °F32.7 °F50 %29.54 in10.0 miSSE (160°)8.1 mphMostly Cloudy
3:33 AM51.8 °F33.4 °F50 %29.53 in10.0 miSouth (180°)9.2 mphScattered Clouds
3:54 AM52.2 °F35.6 °F53 %29.52 in10.0 miSSW (200°)10.4 mph16.1 mphClear
4:14 AM54.5 °F39.7 °F57 %29.52 in10.0 miSW (220°)13.8 mph19.6 mphMostly Cloudy
4:33 AM56.3 °F42.3 °F59 %29.51 in10.0 miSW (230°)18.4 mph27.6 mphOvercast
4:54 AM54.5 °F46.8 °F75 %29.51 in10.0 miWSW (240°)18.4 mph35.7 mphRainLight Rain
5:14 AM52.7 °F47.3 °F82 %29.51 in10.0 miSW (230°)9.2 mph26.5 mphLight Drizzle
5:33 AM53.6 °F47.3 °F79 %29.50 in10.0 miSW (220°)12.7 mphOvercast
5:54 AM53.6 °F47.3 °F79 %29.51 in10.0 miSW (230°)15.0 mph24.2 mphOvercast
6:14 AM53.6 °F47.7 °F80 %29.51 in10.0 miWSW (240°)19.6 mph28.8 mphOvercast
6:33 AM52.7 °F48.0 °F84 %29.52 in7.0 miWSW (240°)16.1 mph23.0 mphOvercast
6:54 AM52.5 °F47.8 °F84 %29.53 in10.0 miWSW (240°)17.3 mph24.2 mphOvercast
7:13 AM51.3 °F46.8 °F85 %29.54 in10.0 miWSW (250°)12.7 mph21.9 mphOvercast
7:34 AM50.2 °F44.2 °F80 %29.57 in10.0 miWSW (250°)18.4 mph28.8 mphOvercast
7:54 AM49.1 °F42.1 °F77 %29.60 in10.0 miWest (270°)17.3 mph27.6 mphOvercast
8:13 AM46.8 °F39.7 °F77 %29.62 in10.0 miWest (260°)19.6 mph33.4 mphOvercast
8:34 AM45.9 °F39.6 °F79 %29.64 in10.0 miWest (270°)16.1 mph31.1 mphOvercast
8:53 AM45.5 °F39.0 °F78 %29.66 in10.0 miWest (270°)23.0 mph32.2 mphOvercast
9:14 AM44.1 °F38.3 °F80 %29.67 in10.0 miWest (280°)15.0 mph26.5 mphOvercast
9:34 AM43.7 °F37.4 °F78 %29.69 in10.0 miWest (270°)18.4 mph26.5 mphOvercast
9:53 AM44.8 °F36.9 °F74 %29.70 in10.0 miWest (270°)18.4 mph24.2 mphOvercast
10:14 AM43.7 °F35.8 °F74 %29.72 in10.0 miWest (270°)19.6 mph31.1 mphOvercast
10:34 AM42.8 °F36.0 °F77 %29.73 in10.0 miWest (280°)11.5 mph24.2 mphOvercast
10:53 AM42.6 °F36.3 °F78 %29.76 in10.0 miWest (270°)16.1 mph24.2 mphOvercast
11:14 AM42.4 °F36.3 °F79 %29.77 in10.0 miWest (270°)12.7 mph21.9 mphOvercast
11:34 AM42.1 °F35.8 °F78 %29.79 in10.0 miWest (270°)18.4 mph24.2 mphOvercast
11:53 AM42.1 °F35.8 °F78 %29.80 in10.0 miWest (270°)15.0 mph20.7 mphOvercast
12:14 PM42.1 °F35.4 °F77 %29.82 in10.0 miWest (270°)16.1 mph25.3 mphOvercast
12:34 PM42.3 °F35.1 °F76 %29.82 in10.0 miWest (260°)11.5 mph20.7 mphOvercast
12:53 PM42.6 °F35.1 °F75 %29.83 in10.0 miWest (260°)11.5 mph18.4 mphOvercast
1:14 PM42.6 °F34.9 °F74 %29.84 in10.0 miWest (270°)12.7 mph20.7 mphOvercast
1:34 PM42.8 °F34.9 °F74 %29.85 in10.0 miWest (260°)15.0 mph21.9 mphOvercast
1:53 PM43.7 °F34.7 °F71 %29.86 in10.0 miWNW (290°)12.7 mph23.0 mphOvercast
2:14 PM44.2 °F34.2 °F68 %29.87 in10.0 miWest (270°)13.8 mph21.9 mphOvercast
2:34 PM43.7 °F33.4 °F67 %29.89 in10.0 miWest (280°)11.5 mph21.9 mphOvercast
2:53 PM43.7 °F33.1 °F66 %29.89 in10.0 miWest (280°)13.8 mph20.7 mphOvercast
3:14 PM44.2 °F32.9 °F64 %29.90 in10.0 miWNW (290°)12.7 mph18.4 mphOvercast
3:34 PM43.7 °F32.7 °F65 %29.91 in10.0 miWNW (290°)8.1 mph18.4 mphOvercast
3:54 PM44.8 °F32.9 °F63 %29.92 in10.0 miWest (280°)11.5 mph17.3 mphOvercast
4:14 PM44.6 °F32.9 °F64 %29.92 in10.0 miWest (270°)9.2 mph16.1 mphOvercast
4:33 PM43.9 °F32.5 °F64 %29.93 in10.0 miWNW (290°)8.1 mph18.4 mphOvercast
4:54 PM44.1 °F32.5 °F64 %29.94 in10.0 miWest (280°)6.9 mphOvercast
5:14 PM44.2 °F32.4 °F63 %29.95 in10.0 miWest (280°)11.5 mph16.1 mphOvercast
5:34 PM43.7 °F32.4 °F64 %29.96 in10.0 miWest (270°)6.9 mphOvercast
5:54 PM43.7 °F32.2 °F64 %29.97 in10.0 miWNW (290°)9.2 mphOvercast
6:14 PM43.5 °F32.2 °F64 %29.97 in10.0 miWest (280°)5.8 mphOvercast
6:34 PM43.7 °F32.2 °F64 %29.98 in10.0 miWNW (300°)6.9 mphOvercast
6:54 PM43.0 °F32.0 °F65 %29.98 in10.0 miNW (310°)6.9 mphOvercast
7:14 PM42.8 °F32.2 °F66 %29.98 in10.0 miNW (310°)5.8 mphOvercast
7:34 PM42.4 °F32.0 °F67 %29.98 in10.0 miWNW (300°)6.9 mphOvercast
7:54 PM42.1 °F32.0 °F67 %29.99 in10.0 miCalmOvercast
8:14 PM41.9 °F32.0 °F68 %30.00 in10.0 miWNW (290°)3.5 mphOvercast
8:34 PM41.9 °F32.0 °F68 %30.00 in10.0 miNW (310°)3.5 mphOvercast
8:54 PM41.2 °F31.8 °F69 %30.02 in10.0 miNW (320°)3.5 mphOvercast
9:14 PM40.5 °F31.8 °F71 %30.02 in10.0 miCalmOvercast
9:34 PM40.6 °F31.6 °F70 %30.02 in10.0 miCalmOvercast
9:54 PM40.5 °F32.0 °F72 %30.02 in10.0 miCalmOvercast
10:14 PM40.3 °F32.0 °F72 %30.03 in10.0 miCalmOvercast
10:34 PM39.7 °F32.2 °F74 %30.04 in10.0 miCalmOvercast
10:54 PM39.4 °F32.0 °F75 %30.04 in10.0 miCalmOvercast
11:14 PM40.1 °F32.0 °F73 %30.04 in10.0 miCalmOvercast
11:34 PM39.0 °F32.2 °F76 %30.03 in10.0 miCalmOvercast
11:54 PM37.0 °F31.8 °F81 %30.04 in10.0 miCalmOvercast
Hourly data recorded from KIKW, located miles away from Midland, Michigan







STORIES FROM OUR PARTNERS